{"data":{"norad_id":64816,"epoch":"2026-05-25T03:47:22.419168Z","epoch_age_seconds":54605,"freshness":"FRESH","line1":"1 64816U 25151A   26145.15789837  .00003676  00000+0  51091-3 0  9995","line2":"2 64816  51.9021 302.4931 0000601 111.5714 248.5313 14.79935932 48082","mean_motion":14.79935932,"eccentricity":6.01e-5,"inclination_deg":51.9021,"raan_deg":302.4931,"arg_perigee_deg":111.5714,"mean_anomaly_deg":248.5313,"bstar":0.00051091,"rev_number":4808,"period_min":97.301509400746,"perigee_km":629.10521302407,"apogee_km":629.94753416158,"semimajor_km":7007.6633735928,"source":"CELESTRAK","updated_at":"2026-05-25T13:38:04.820938Z"}}